SCP
-0 -0 -0 -0 -0 -0 -0 -0 -0 -0 -0 -0 -0 -0 -0 -0 -0 -0 -0 -0 -0 -0 -0 -0 -0 -0 -0 -0 -0 -0 -0 -0 -0 0 0 -0 -0 -0 -0 -0 0 0 -0
-0 -0 -0 -0 -0 0 -0 -0 -0 -0 -0 -0 -0 -0 -0 -0 -0 -0 -0 -0 -0 -0 -0 -0 -0 -0 -0 -0 -0 -0 -0 -0 -0 -0 -0 0 0 0 0 0 0 0 0
-0 -0 -0 -0 0 -0 -0 -0 -0 -0 -0 -0 -0 -0 -0 -0 -0 -0 -0 -0 -0 -0 -0 -0 -0 -0 -0 -0 -0 -0 -0 -0 -0 -0 0 0 -0 0 0 0 0 0 0
0 0 -0 -0 -0 -0 -0 -0 -0 -0 -0 -0 -0 -0 -0 -0 -0 -0 -0 -0 -0 -0 -0 -0 -0 0 0 0 0 0 -0 -0 0 0 0 -0 -0 0 0 0 0 0 0
0 0 0 -0 -0 -0 -0 -0 -0 -0 -0 -0 -0 -0 -0 -0 -0 -0 -0 -0 -0 0 0 0 0 0 0 0 0 0 0 0 0 0 0 0 -0 0 0 0 0 0 0
0 0 0 -0 -0 -0 -0 -0 -0 -0 -0 -0 -0 -0 -0 -0 -0 -0 -0 -0 -0 -0 0 0 0 0 0 0 0 0 0 0 0 0 0 -0 -0 -0 0 0 0 0 0
0 0 0 0 -0 -0 -0 -0 -0 -0 -0 -0 -0 -0 -0 -0 -0 -0 -0 -0 -0 0 0 0 0 0 0 0 0 0 0 0 0 0 0 0 -0 -0 0 0 0 0 0
0 0 0 0 -0 -0 -0 -0 -0 -0 -0 -0 -0 -0 -0 -0 -0 -0 -0 -0 0 0 0 0 0 0 0 0 0 0 0 0 0 0 0 0 0 -0 0 0 0 0 0
0 0 0 0 0 0 -0 -0 -0 -0 -0 0 -0 -0 -0 -0 -0 -0 -0 -0 0 0 0 0 0 0 0 0 0 0 0 0 0 0 0 0 0 0 0 0 0 0 0
0 0 0 0 0 0 0 -0 0 0 0 0 0 0 0 0 -0 -0 -0 -0 0 0 0 0 0 0 0 0 0 0 0 0 0 0 0 0 0 0 0 0 0 0 0
0 0 0 0 0 0 0 0 0 -0 0 0 0 0 0 0 0 0 0 0 0 0 0 0 0 0 0 0 0 0 0 0 0 0 0 0 0 0 0 0 0 0 0
0 0 0 0 0 0 0 0 0 0 0 0 0 0 0 0 0 0 0 0 0 0 0 0 0 0 0 0 0 0 0 0 0 0 0 0 0 0 0 0 0 0 0
0 0 0 0 0 0 0 0 0 0 0 0 0 0 0 0 0 0 0 0 0 0 0 0 0 0 0 0 0 0 0 0 0 0 0 0 0 0 0 0 0 0 0
0 0 0 0 0 0 0 0 0 0 0 0 0 0 0 0 0 0 0 0 0 0 0 0 0 0 0 0 0 0 0 0 0 0 0 0 0 0 0 0 0 0 0
0 0 0 0 0 0 0 0 0 0 0 0 0 0 0 0 0 0 0 0 0 0 0 0 0 0 0 0 0 0 0 0 0 0 0 0 0 0 0 0 0 0 0
0 0 0 0 0 0 0 0 0 0 0 0 0 0 0 0 0 0 0 0 0 0 0 0 0 0 0 0 0 0 0 0 0 0 0 0 0 0 0 0 0 0 0
0 0 0 0 0 0 0 0 0 0 0 0 0 0 0 0 0 0 0 0 0 0 0 0 0 0 0 0 0 0 0 0 0 0 0 0 0 0 0 0 0 0 0
0 0 0 0 0 0 0 0 0 0 0 0 0 0 0 0 0 0 0 0 0 0 0 0 0 0 0 0 0 0 0 0 0 0 0 0 0 0 0 0 0 0 0
-0 -0 -0 -0 -0 -0 0 0 0 0 0 0 0 0 0 0 0 0 0 0 0 0 0 0 0 -0 0 0 0 0 0 0 0 0 0 0 0 0 0 0 0 0 0
-0 -0 -0 0 0 0 0 0 0 0 0 0 0 0 0 0 0 0 0 0 -0 -0 0 0 0 -0 -0 0 0 0 0 0 0 0 0 0 0 0 0 0 0 0 0
0 0 -0 0 0 0 0 0 0 0 0 0 0 0 0 0 0 0 -0 -0 -0 -0 -0 -0 -0 -0 -0 -0 -0 -0 -0 -0 0 0 0 -0 0 0 0 -0 0 0 0
-0 -0 -0 -0 0 0 0 0 0 0 0 0 0 0 0 0 0 0 -0 -0 -0 -0 -0 -0 -0 -0 -0 -0 -0 -0 -0 -0 -0 -0 -0 -0 -0 -0 -0 -0 -0 -0 0
-0 -0 -0 -0 0 0 0 0 0 0 0 0 0 0 0 0 0 0 -0 -0 -0 -0 -0 -0 -0 -0 -0 -0 -0 -0 -0 -0 -0 -0 -0 -0 -0 -0 -0 -0 -0 0 0
-0 -0 -0 -0 0 0 0 0 0 0 0 0 0 0 0 0 0 0 -0 -0 -0 -0 -0 -0 -0 -0 -0 -0 -0 -0 -0 -0 -0 -0 -0 -0 -0 -0 -0 -0 -0 0 0
-0 -0 0 0 0 0 0 0 0 0 0 0 0 0 0 0 0 0 0 0 0 -0 -0 -0 -0 -0 -0 -0 -0 -0 -0 -0 -0 -0 -0 -0 -0 -0 -0 -0 0 -0 -0
0 0 0 0 0 0 0 0 0 0 0 0 0 0 0 0 0 0 0 0 0 0 0 0 0 0 0 0 0 0 0 0 0 0 0 0 -0 -0 0 -0 0 -0 0
Wind_Speed_500mb
31 35 23 20 20 24 21 26 25 21 20 23 23 22 22 23 25 24 25 23 20 19 18 19 18 19 19 20 22 25 26 27 27 27 28 31 32 36 35 30 21 14 11
27 41 27 27 30 20 23 27 23 17 17 21 22 25 24 24 28 26 23 21 21 20 20 19 18 18 16 16 18 19 21 22 24 24 19 22 27 34 32 34 26 20 15
18 42 42 47 21 21 27 26 23 16 18 23 23 22 21 23 24 29 28 25 23 24 23 22 19 16 10 9 12 13 14 13 17 19 18 18 25 32 36 36 25 20 16
18 35 46 54 45 29 28 25 21 19 29 31 29 25 22 21 22 20 20 19 19 17 14 13 16 17 12 5 8 10 11 9 13 16 11 19 24 30 33 36 29 21 17
15 28 44 46 46 27 25 22 16 15 21 29 31 26 28 26 24 18 15 9 3 3 5 9 14 16 11 5 7 9 10 10 10 12 16 21 22 27 31 34 30 24 19
12 20 35 38 36 28 21 22 16 15 15 16 17 17 17 15 17 17 15 15 16 12 10 12 14 16 13 9 7 9 10 9 10 12 14 20 21 24 28 33 30 29 25
12 16 21 44 35 34 26 24 19 15 14 14 14 15 14 12 13 15 13 11 12 13 12 12 13 11 10 8 8 8 9 10 9 10 12 16 20 20 25 31 32 29 26
16 10 15 26 40 38 37 31 25 19 15 13 13 12 10 9 9 9 9 8 8 8 10 10 11 11 13 9 8 6 7 6 7 8 12 16 21 22 24 30 33 32 29
24 20 23 17 19 47 44 34 29 23 15 10 7 8 10 12 13 12 4 10 8 5 7 8 7 9 10 10 8 7 6 5 3 3 8 15 19 22 25 29 32 33 32
31 32 33 31 29 19 31 33 29 23 17 12 5 2 1 1 4 6 9 15 17 11 9 8 10 10 9 10 12 12 14 12 9 8 11 16 17 18 24 29 31 34 34
40 41 36 40 35 36 32 28 26 25 19 13 7 3 1 2 3 5 9 13 13 17 13 13 16 15 14 15 17 19 21 23 20 19 20 23 25 23 22 28 34 37 37
42 42 43 38 37 39 39 35 28 23 23 20 17 12 8 3 3 4 6 8 6 9 8 11 16 20 21 21 22 26 26 27 27 29 33 35 36 35 32 31 35 41 42
36 35 40 43 36 32 35 35 37 33 32 30 26 21 21 18 18 14 12 10 11 11 12 11 11 14 15 19 25 27 28 32 33 34 37 40 37 36 38 39 40 40 41
36 32 30 30 35 37 33 32 32 26 25 25 26 22 19 18 19 20 20 22 21 22 20 20 20 20 18 19 20 21 22 22 24 24 27 34 38 42 42 45 43 41 37
37 37 34 29 28 28 25 28 32 31 31 32 31 28 27 26 27 27 27 28 29 29 28 27 26 24 23 22 21 21 21 19 17 18 19 26 28 31 36 43 50 55 54
30 30 33 31 34 34 36 32 37 38 36 33 35 35 34 34 35 35 35 36 36 38 37 36 35 34 34 32 28 24 20 16 15 16 19 20 24 29 31 35 39 45 49
24 26 25 30 29 33 35 36 36 39 37 37 39 38 38 37 37 38 39 40 42 43 41 38 38 38 37 38 37 29 21 16 15 19 25 26 27 27 30 36 43 42 40
20 21 23 25 28 32 33 34 35 34 35 37 37 38 37 38 39 39 41 44 44 44 46 46 46 46 47 47 45 38 27 22 21 20 32 35 40 42 41 43 45 48 51
20 21 22 24 23 25 27 29 31 31 31 34 34 34 35 37 38 39 42 44 45 49 50 53 55 56 55 53 52 43 33 33 13 36 45 42 47 52 59 58 56 54 54
20 21 20 19 22 21 22 25 25 24 27 28 29 31 33 36 37 38 41 44 48 50 53 57 59 61 63 63 59 52 37 31 12 65 42 63 48 69 72 71 69 64 60
15 17 17 18 18 17 17 18 19 21 23 24 26 28 30 32 35 38 41 43 48 52 56 58 60 66 70 74 75 70 45 20 15 64 53 56 79 80 80 82 80 77 74
17 16 15 15 16 15 14 13 15 16 17 20 21 23 26 30 33 36 39 42 43 45 49 55 61 63 66 73 76 64 45 28 89 8 87 68 87 88 88 86 86 85 82
23 21 18 16 14 12 12 11 11 11 12 15 15 18 23 28 31 34 37 39 42 45 49 53 57 60 62 62 64 59 36 35 95 36 30 96 98 102 96 91 87 86 86
26 24 21 19 17 14 11 8 6 5 6 7 11 17 21 24 27 31 35 40 44 44 47 51 52 55 58 62 61 55 50 54 49 64 87 99 106 105 105 104 102 91 85
32 30 27 25 21 17 13 9 6 3 2 4 10 14 17 20 26 30 35 39 42 45 47 49 49 50 53 54 58 60 61 60 57 61 80 114 109 105 104 102 98 101 97
36 36 32 28 24 21 18 14 12 10 8 9 11 13 16 20 25 31 35 39 42 44 46 47 49 49 50 51 53 55 56 60 65 70 84 100 100 112 112 107 103 101 98
Wind_Direction_500mb
64 58 47 81 83 80 93 97 96 89 94 95 102 97 101 97 87 85 85 83 80 74 68 58 58 65 67 61 55 49 43 45 45 38 28 27 21 19 17 19 19 18 19
46 61 74 80 66 87 106 107 98 90 93 97 87 99 93 98 95 86 79 77 71 64 62 65 70 66 65 66 59 47 39 34 38 35 40 17 7 9 9 8 7 5 6
68 74 85 74 72 109 113 109 101 99 94 84 86 91 93 90 98 95 92 87 83 78 72 68 57 48 49 60 61 51 46 36 31 24 20 7 13 13 3 3 1 356 0
88 86 92 69 67 118 121 122 118 111 89 84 82 86 88 95 106 121 111 102 98 89 67 37 5 9 16 28 40 36 31 17 0 2 3 0 6 359 0 1 1 353 344
117 98 114 88 76 123 122 118 133 109 103 97 97 93 91 92 97 111 116 116 98 341 338 356 2 14 53 47 20 9 3 344 328 332 338 351 355 358 359 3 4 357 343
150 126 133 129 113 120 126 122 120 115 106 95 82 88 87 86 82 83 93 92 79 79 70 52 49 51 59 50 25 6 358 345 322 304 316 340 352 358 356 2 359 358 352
144 164 150 153 153 149 153 141 133 125 111 100 89 79 71 71 75 77 78 69 52 48 43 32 29 37 49 40 29 24 17 8 346 310 310 332 341 347 350 353 354 349 348
99 130 161 154 167 168 162 155 145 136 122 103 85 66 55 48 50 65 61 50 40 26 20 15 12 9 359 358 355 1 4 5 358 337 305 326 330 335 341 342 345 345 340
89 109 139 126 171 180 169 161 152 143 133 107 74 15 24 21 15 1 355 3 339 6 7 355 345 345 342 331 323 327 323 330 296 296 294 315 325 326 329 331 334 337 335
87 94 100 114 112 130 153 169 152 151 153 156 161 256 264 266 299 288 301 316 308 304 306 305 306 307 303 302 300 298 292 289 282 278 285 293 302 311 316 319 321 325 326
87 81 89 98 102 109 114 126 156 145 139 140 121 152 295 236 241 292 292 294 299 304 299 298 308 310 298 290 286 288 294 302 286 286 296 294 299 298 300 306 310 312 315
77 79 84 84 89 95 93 101 109 128 139 125 119 128 133 120 98 43 345 319 309 340 317 298 298 296 296 303 307 301 301 302 304 309 305 300 297 295 293 299 300 301 304
71 78 81 87 88 92 101 104 109 113 112 105 100 100 92 88 85 78 68 57 43 40 32 18 356 329 312 310 300 304 306 302 298 292 292 294 295 297 300 300 292 298 297
81 73 76 81 89 87 86 90 91 95 97 98 88 84 79 70 61 56 49 42 32 28 25 20 16 14 3 353 343 334 326 317 308 309 302 291 289 284 281 280 284 284 287
73 75 71 76 82 87 90 84 86 83 81 80 81 75 65 61 57 49 44 38 34 32 25 23 18 15 12 2 351 343 339 338 334 325 319 304 294 290 291 292 285 280 279
88 82 83 80 83 86 86 82 85 82 77 75 71 67 62 59 56 52 50 44 37 33 29 25 21 19 16 13 8 359 355 352 349 341 333 331 324 306 306 304 298 288 286
100 96 90 92 87 88 87 87 83 78 78 76 73 70 64 58 53 47 44 40 36 30 25 24 22 18 17 20 14 9 5 355 348 353 349 345 336 332 323 308 303 300 302
105 111 109 93 91 89 87 85 82 79 75 72 69 65 58 54 49 43 41 38 33 28 24 19 16 15 15 15 17 14 8 353 350 343 350 346 343 339 334 330 323 313 312
106 111 112 111 102 93 88 84 80 78 77 73 69 62 56 50 45 38 36 32 27 24 23 21 15 11 9 10 12 15 2 354 11 8 348 345 342 341 337 334 329 325 317
112 116 114 113 105 99 94 88 87 84 78 73 65 58 50 44 40 36 32 28 24 20 19 19 17 11 9 6 3 8 10 5 18 348 345 348 347 344 342 338 333 329 326
135 127 127 121 113 108 98 94 91 79 75 69 60 53 46 40 35 31 28 25 22 18 16 14 15 13 7 4 359 360 10 12 354 341 343 349 342 344 343 342 339 336 330
167 158 147 137 133 128 119 108 95 90 82 71 62 52 45 38 31 26 24 22 19 16 14 13 13 15 14 10 9 5 353 358 339 4 340 343 341 342 342 341 340 338 334
190 184 177 165 157 151 141 123 108 92 79 71 58 46 39 32 26 22 19 16 14 11 12 11 10 9 10 11 12 16 1 338 342 330 333 337 340 340 339 337 336 337 335
200 199 198 193 189 186 177 154 126 105 83 58 38 32 25 20 17 15 11 11 9 7 6 6 5 3 2 2 1 2 358 348 341 327 321 335 333 335 335 335 335 332 329
206 207 207 208 206 208 205 203 209 232 256 350 3 4 2 1 2 2 1 1 360 359 358 356 354 353 353 352 351 348 345 342 340 323 319 328 328 330 329 329 330 328 326
213 213 215 218 217 221 223 230 238 252 281 312 318 321 331 343 350 349 350 349 349 348 349 348 346 344 343 343 341 339 337 334 330 326 320 322 321 326 326 327 329 326 324
Wind_Speed_850mb
31 35 23 20 20 24 21 26 25 21 20 23 23 22 22 23 25 24 25 23 20 19 18 19 18 19 19 20 22 25 26 27 27 27 28 31 32 36 35 30 21 14 11
27 41 27 27 30 20 23 27 23 17 17 21 22 25 24 24 28 26 23 21 21 20 20 19 18 18 16 16 18 19 21 22 24 24 19 22 27 34 32 34 26 20 15
18 42 42 47 21 21 27 26 23 16 18 23 23 22 21 23 24 29 28 25 23 24 23 22 19 16 10 9 12 13 14 13 17 19 18 18 25 32 36 36 25 20 16
18 35 46 54 45 29 28 25 21 19 29 31 29 25 22 21 22 20 20 19 19 17 14 13 16 17 12 5 8 10 11 9 13 16 11 19 24 30 33 36 29 21 17
15 28 44 46 46 27 25 22 16 15 21 29 31 26 28 26 24 18 15 9 3 3 5 9 14 16 11 5 7 9 10 10 10 12 16 21 22 27 31 34 30 24 19
12 20 35 38 36 28 21 22 16 15 15 16 17 17 17 15 17 17 15 15 16 12 10 12 14 16 13 9 7 9 10 9 10 12 14 20 21 24 28 33 30 29 25
12 16 21 44 35 34 26 24 19 15 14 14 14 15 14 12 13 15 13 11 12 13 12 12 13 11 10 8 8 8 9 10 9 10 12 16 20 20 25 31 32 29 26
16 10 15 26 40 38 37 31 25 19 15 13 13 12 10 9 9 9 9 8 8 8 10 10 11 11 13 9 8 6 7 6 7 8 12 16 21 22 24 30 33 32 29
24 20 23 17 19 47 44 34 29 23 15 10 7 8 10 12 13 12 4 10 8 5 7 8 7 9 10 10 8 7 6 5 3 3 8 15 19 22 25 29 32 33 32
31 32 33 31 29 19 31 33 29 23 17 12 5 2 1 1 4 6 9 15 17 11 9 8 10 10 9 10 12 12 14 12 9 8 11 16 17 18 24 29 31 34 34
40 41 36 40 35 36 32 28 26 25 19 13 7 3 1 2 3 5 9 13 13 17 13 13 16 15 14 15 17 19 21 23 20 19 20 23 25 23 22 28 34 37 37
42 42 43 38 37 39 39 35 28 23 23 20 17 12 8 3 3 4 6 8 6 9 8 11 16 20 21 21 22 26 26 27 27 29 33 35 36 35 32 31 35 41 42
36 35 40 43 36 32 35 35 37 33 32 30 26 21 21 18 18 14 12 10 11 11 12 11 11 14 15 19 25 27 28 32 33 34 37 40 37 36 38 39 40 40 41
36 32 30 30 35 37 33 32 32 26 25 25 26 22 19 18 19 20 20 22 21 22 20 20 20 20 18 19 20 21 22 22 24 24 27 34 38 42 42 45 43 41 37
37 37 34 29 28 28 25 28 32 31 31 32 31 28 27 26 27 27 27 28 29 29 28 27 26 24 23 22 21 21 21 19 17 18 19 26 28 31 36 43 50 55 54
30 30 33 31 34 34 36 32 37 38 36 33 35 35 34 34 35 35 35 36 36 38 37 36 35 34 34 32 28 24 20 16 15 16 19 20 24 29 31 35 39 45 49
24 26 25 30 29 33 35 36 36 39 37 37 39 38 38 37 37 38 39 40 42 43 41 38 38 38 37 38 37 29 21 16 15 19 25 26 27 27 30 36 43 42 40
20 21 23 25 28 32 33 34 35 34 35 37 37 38 37 38 39 39 41 44 44 44 46 46 46 46 47 47 45 38 27 22 21 20 32 35 40 42 41 43 45 48 51
20 21 22 24 23 25 27 29 31 31 31 34 34 34 35 37 38 39 42 44 45 49 50 53 55 56 55 53 52 43 33 33 13 36 45 42 47 52 59 58 56 54 54
20 21 20 19 22 21 22 25 25 24 27 28 29 31 33 36 37 38 41 44 48 50 53 57 59 61 63 63 59 52 37 31 12 65 42 63 48 69 72 71 69 64 60
15 17 17 18 18 17 17 18 19 21 23 24 26 28 30 32 35 38 41 43 48 52 56 58 60 66 70 74 75 70 45 20 15 64 53 56 79 80 80 82 80 77 74
17 16 15 15 16 15 14 13 15 16 17 20 21 23 26 30 33 36 39 42 43 45 49 55 61 63 66 73 76 64 45 28 89 8 87 68 87 88 88 86 86 85 82
23 21 18 16 14 12 12 11 11 11 12 15 15 18 23 28 31 34 37 39 42 45 49 53 57 60 62 62 64 59 36 35 95 36 30 96 98 102 96 91 87 86 86
26 24 21 19 17 14 11 8 6 5 6 7 11 17 21 24 27 31 35 40 44 44 47 51 52 55 58 62 61 55 50 54 49 64 87 99 106 105 105 104 102 91 85
32 30 27 25 21 17 13 9 6 3 2 4 10 14 17 20 26 30 35 39 42 45 47 49 49 50 53 54 58 60 61 60 57 61 80 114 109 105 104 102 98 101 97
36 36 32 28 24 21 18 14 12 10 8 9 11 13 16 20 25 31 35 39 42 44 46 47 49 49 50 51 53 55 56 60 65 70 84 100 100 112 112 107 103 101 98
Wind_Direction_850mb
64 58 47 81 83 80 93 97 96 89 94 95 102 97 101 97 87 85 85 83 80 74 68 58 58 65 67 61 55 49 43 45 45 38 28 27 21 19 17 19 19 18 19
46 61 74 80 66 87 106 107 98 90 93 97 87 99 93 98 95 86 79 77 71 64 62 65 70 66 65 66 59 47 39 34 38 35 40 17 7 9 9 8 7 5 6
68 74 85 74 72 109 113 109 101 99 94 84 86 91 93 90 98 95 92 87 83 78 72 68 57 48 49 60 61 51 46 36 31 24 20 7 13 13 3 3 1 356 0
88 86 92 69 67 118 121 122 118 111 89 84 82 86 88 95 106 121 111 102 98 89 67 37 5 9 16 28 40 36 31 17 0 2 3 0 6 359 0 1 1 353 344
117 98 114 88 76 123 122 118 133 109 103 97 97 93 91 92 97 111 116 116 98 341 338 356 2 14 53 47 20 9 3 344 328 332 338 351 355 358 359 3 4 357 343
150 126 133 129 113 120 126 122 120 115 106 95 82 88 87 86 82 83 93 92 79 79 70 52 49 51 59 50 25 6 358 345 322 304 316 340 352 358 356 2 359 358 352
144 164 150 153 153 149 153 141 133 125 111 100 89 79 71 71 75 77 78 69 52 48 43 32 29 37 49 40 29 24 17 8 346 310 310 332 341 347 350 353 354 349 348
99 130 161 154 167 168 162 155 145 136 122 103 85 66 55 48 50 65 61 50 40 26 20 15 12 9 359 358 355 1 4 5 358 337 305 326 330 335 341 342 345 345 340
89 109 139 126 171 180 169 161 152 143 133 107 74 15 24 21 15 1 355 3 339 6 7 355 345 345 342 331 323 327 323 330 296 296 294 315 325 326 329 331 334 337 335
87 94 100 114 112 130 153 169 152 151 153 156 161 256 264 266 299 288 301 316 308 304 306 305 306 307 303 302 300 298 292 289 282 278 285 293 302 311 316 319 321 325 326
87 81 89 98 102 109 114 126 156 145 139 140 121 152 295 236 241 292 292 294 299 304 299 298 308 310 298 290 286 288 294 302 286 286 296 294 299 298 300 306 310 312 315
77 79 84 84 89 95 93 101 109 128 139 125 119 128 133 120 98 43 345 319 309 340 317 298 298 296 296 303 307 301 301 302 304 309 305 300 297 295 293 299 300 301 304
71 78 81 87 88 92 101 104 109 113 112 105 100 100 92 88 85 78 68 57 43 40 32 18 356 329 312 310 300 304 306 302 298 292 292 294 295 297 300 300 292 298 297
81 73 76 81 89 87 86 90 91 95 97 98 88 84 79 70 61 56 49 42 32 28 25 20 16 14 3 353 343 334 326 317 308 309 302 291 289 284 281 280 284 284 287
73 75 71 76 82 87 90 84 86 83 81 80 81 75 65 61 57 49 44 38 34 32 25 23 18 15 12 2 351 343 339 338 334 325 319 304 294 290 291 292 285 280 279
88 82 83 80 83 86 86 82 85 82 77 75 71 67 62 59 56 52 50 44 37 33 29 25 21 19 16 13 8 359 355 352 349 341 333 331 324 306 306 304 298 288 286
100 96 90 92 87 88 87 87 83 78 78 76 73 70 64 58 53 47 44 40 36 30 25 24 22 18 17 20 14 9 5 355 348 353 349 345 336 332 323 308 303 300 302
105 111 109 93 91 89 87 85 82 79 75 72 69 65 58 54 49 43 41 38 33 28 24 19 16 15 15 15 17 14 8 353 350 343 350 346 343 339 334 330 323 313 312
106 111 112 111 102 93 88 84 80 78 77 73 69 62 56 50 45 38 36 32 27 24 23 21 15 11 9 10 12 15 2 354 11 8 348 345 342 341 337 334 329 325 317
112 116 114 113 105 99 94 88 87 84 78 73 65 58 50 44 40 36 32 28 24 20 19 19 17 11 9 6 3 8 10 5 18 348 345 348 347 344 342 338 333 329 326
135 127 127 121 113 108 98 94 91 79 75 69 60 53 46 40 35 31 28 25 22 18 16 14 15 13 7 4 359 360 10 12 354 341 343 349 342 344 343 342 339 336 330
167 158 147 137 133 128 119 108 95 90 82 71 62 52 45 38 31 26 24 22 19 16 14 13 13 15 14 10 9 5 353 358 339 4 340 343 341 342 342 341 340 338 334
190 184 177 165 157 151 141 123 108 92 79 71 58 46 39 32 26 22 19 16 14 11 12 11 10 9 10 11 12 16 1 338 342 330 333 337 340 340 339 337 336 337 335
200 199 198 193 189 186 177 154 126 105 83 58 38 32 25 20 17 15 11 11 9 7 6 6 5 3 2 2 1 2 358 348 341 327 321 335 333 335 335 335 335 332 329
206 207 207 208 206 208 205 203 209 232 256 350 3 4 2 1 2 2 1 1 360 359 358 356 354 353 353 352 351 348 345 342 340 323 319 328 328 330 329 329 330 328 326
213 213 215 218 217 221 223 230 238 252 281 312 318 321 331 343 350 349 350 349 349 348 349 348 346 344 343 343 341 339 337 334 330 326 320 322 321 326 326 327 329 326 324